FW2726 Weather Reports


Display with metric or nautical units.
time (UTC)temp
F
wind
direction
speed
MPH
gust
MPH
rain 1hr
in
rain 24hr
in
rain mn
in
humidity
%
barometer
mb
20260503234600 57 12 25.0 36.0 0.00 0.00 0.00 35 1004.7
20260503233103 57 8 24.0 37.0 0.00 0.00 0.00 37 1004.6
20260503231604 57 8 23.0 31.0 0.00 0.00 0.00 39 1004.4
20260503230108 57 351 21.0 29.0 0.00 0.00 0.00 38 1004.1
20260503224602 57 354 21.0 30.0 0.00 0.00 0.00 38 1004.0
20260503223059 58 23 24.0 34.0 0.00 0.00 0.00 39 1003.9
20260503221600 59 9 24.0 35.0 0.00 0.00 0.00 34 1003.5
20260503220104 60 354 27.0 35.0 0.00 0.00 0.00 32 1003.2
20260503214602 60 351 24.0 36.0 0.00 0.00 0.00 31 1002.9
20260503213112 62 359 26.0 35.0 0.00 0.00 0.00 30 1003.2
20260503211601 63 359 28.0 43.0 0.00 0.00 0.00 33 1003.2
20260503210105 61 349 25.0 37.0 0.00 0.00 0.00 33 1003.1
20260503204600 62 347 28.0 35.0 0.00 0.00 0.00 33 1003.2
20260503203105 62 4 28.0 36.0 0.00 0.00 0.00 31 1003.0
20260503201559 62 4 25.0 39.0 0.00 0.00 0.00 31 1003.2
20260503200105 62 347 24.0 35.0 0.00 0.00 0.00 30 1002.9
20260503194557 62 337 22.0 32.0 0.00 0.00 0.00 33 1002.8
20260503193112 62 346 25.0 36.0 0.00 0.00 0.00 32 1002.7
20260503191644 63 359 25.0 35.0 0.00 0.00 0.00 29 1002.8
20260503184611 66 347 21.0 34.0 0.00 0.00 0.00 29 1002.6
20260503183110 66 359 27.0 37.0 0.00 0.00 0.00 29 1002.6
20260503181612 67 344 20.0 34.0 0.00 0.00 0.00 30 1002.6
20260503174603 66 334 19.0 31.0 0.00 0.00 0.00 32 1002.9
20260503173103 67 337 22.0 31.0 0.00 0.00 0.00 31 1003.1
20260503171558 68 351 22.0 30.0 0.00 0.00 0.00 29 1003.1
20260503160104 64 308 19.0 25.0 0.00 0.00 0.00 35 1003.8
20260503090105 42 252 10.0 13.0 0.00 0.00 0.00 66 1006.8
20260503081630 43 242 10.0 13.0 0.00 0.00 0.00 63 1007.5
20260503080117 42 236 7.0 11.0 0.00 0.00 0.00 64 1007.6
20260503071601 43 220 9.0 14.0 0.00 0.00 0.00 61 1008.3
20260503070107 42 222 10.0 15.0 0.00 0.00 0.00 63 1008.4
20260503060104 42 223 7.0 10.0 0.00 0.00 0.00 62 1009.3
20260503054605 42 224 6.0 8.0 0.00 0.00 0.00 62 1009.4
20260503053100 42 224 6.0 9.0 0.00 0.00 0.00 62 1009.5
20260503051558 42 227 5.0 8.0 0.00 0.00 0.00 60 1009.7
20260503050101 43 224 5.0 7.0 0.00 0.00 0.00 58 1009.8
20260503044613 43 216 4.0 6.0 0.00 0.00 0.00 58 1010.0
20260503043111 46 202 5.0 6.0 0.00 0.00 0.00 52 1010.2
20260503041601 47 226 5.0 7.0 0.00 0.00 0.00 50 1010.3
20260503034600 49 241 5.0 7.0 0.00 0.00 0.00 47 1010.7
20260503033136 50 228 5.0 6.0 0.00 0.00 0.00 47 1010.6
20260503031602 51 227 4.0 5.0 0.00 0.00 0.00 44 1010.6
20260503030113 53 227 4.0 5.0 0.00 0.00 0.00 44 1010.7
20260503024624 55 259 2.0 3.0 0.00 0.00 0.00 40 1010.6
20260503023107 57 259 2.0 4.0 0.00 0.00 0.00 37 1010.5
20260503021605 61 299 2.0 5.0 0.00 0.00 0.00 33 1010.6
20260503020100 64 293 4.0 8.0 0.00 0.00 0.00 30 1010.7
20260503014605 65 310 4.0 7.0 0.00 0.00 0.00 29 1010.7
20260503013100 66 299 6.0 9.0 0.00 0.00 0.00 28 1010.9
20260503011605 67 299 7.0 12.0 0.00 0.00 0.00 27 1011.0
20260503004601 67 332 7.0 16.0 0.00 0.00 0.00 26 1011.3
20260503003101 67 301 9.0 17.0 0.00 0.00 0.00 25 1011.4
20260503001603 67 296 7.0 18.0 0.00 0.00 0.00 25 1011.5